Theta_e
297 297 297 299 298 298 296 295 296 295 296 297 294 298 298 300 291 289 300 302 301 302 304 305 305 305 304 304 305 306 307 307 306 306 306 306 307 307 307 308 309 309 309 311 312 313 313 314 314 315 315 315 317 317 317 317 318 318 319 319 318 317 317 316 316 316 317 317 317 317 316 316 316 316 316 316 316 318 320 322 324 325 326 327 326 326 326
297 297 298 299 296 297 297 295 295 297 298 297 297 298 300 300 300 304 303 304 303 304 306 306 306 307 306 306 307 307 306 305 305 306 306 306 306 306 307 308 309 309 310 310 311 313 313 313 313 313 314 314 315 315 316 317 317 318 319 318 317 316 315 315 315 315 315 315 315 315 315 314 314 314 313 313 313 313 314 316 317 320 321 322 320 317 316
295 298 299 299 299 297 296 298 297 297 298 298 297 300 303 304 304 304 303 301 299 305 307 305 307 307 307 306 305 305 305 305 305 305 305 306 306 306 307 308 308 309 309 310 311 311 312 312 313 313 314 314 315 315 316 316 316 317 317 316 315 315 314 315 315 314 314 314 314 314 314 313 313 312 312 311 311 311 311 311 312 313 315 317 316 315 313
291 296 297 298 298 298 297 298 297 297 297 297 302 299 305 303 300 302 301 297 297 303 306 306 306 305 304 304 304 305 305 306 305 305 305 305 306 306 307 307 308 308 309 309 310 310 311 312 313 313 313 313 314 314 315 314 315 317 316 315 314 314 314 314 314 314 314 313 313 313 313 312 312 311 310 310 309 309 310 309 309 309 309 311 312 312 311
288 296 298 297 296 293 292 293 298 301 303 304 306 305 307 306 306 299 294 298 302 304 304 302 303 304 304 304 305 304 305 306 306 305 305 305 306 306 307 307 308 308 308 308 310 311 310 311 311 312 313 313 313 314 314 315 316 315 314 313 313 313 313 313 313 313 313 312 312 312 312 312 311 310 309 308 307 307 307 309 308 307 307 307 307 308 308
289 294 296 297 291 284 287 300 300 304 304 304 301 300 303 306 307 304 305 304 304 304 303 302 302 302 303 304 306 308 306 305 306 306 306 306 306 307 307 308 308 308 308 308 308 310 311 311 311 313 314 313 314 315 314 314 314 314 313 312 312 311 312 312 313 313 312 312 312 312 311 311 310 309 308 307 307 306 306 307 306 306 306 305 305 305 306
288 293 294 288 283 285 296 301 302 307 307 306 303 303 303 303 304 304 303 302 302 303 304 304 304 304 305 306 306 307 308 308 306 306 306 306 306 306 306 307 307 307 307 307 308 309 309 310 313 313 312 313 314 313 314 313 313 313 312 312 311 311 310 311 312 312 311 311 311 311 311 310 309 308 307 306 306 305 305 304 304 304 304 303 303 303 304
292 290 289 282 283 294 300 300 301 307 307 305 302 299 302 303 303 303 301 302 303 303 303 303 304 303 303 304 306 307 307 308 307 306 306 306 307 306 307 306 306 306 306 306 307 308 310 310 310 311 312 314 313 313 313 312 312 312 311 310 310 310 309 310 310 311 311 311 310 310 310 309 308 307 306 306 305 305 304 304 304 304 303 303 301 301 301
286 289 288 286 291 295 297 296 298 302 300 301 298 291 296 302 303 303 301 300 300 301 301 301 300 302 302 299 300 305 306 307 307 307 307 307 307 306 306 305 305 306 307 306 308 309 310 310 310 312 312 313 313 312 311 311 311 311 311 309 309 309 309 309 310 310 310 310 309 309 308 307 306 306 306 306 306 306 304 303 303 303 302 301 301 300 300
291 288 285 285 286 284 290 299 303 308 307 307 304 298 294 302 303 303 300 298 298 299 299 299 299 301 297 293 295 301 304 306 306 306 306 306 305 305 304 304 305 305 306 307 308 309 308 310 311 312 312 312 311 310 310 310 310 310 309 308 308 308 308 309 309 309 309 309 308 307 306 306 305 305 306 306 306 306 304 303 302 302 302 301 301 300 299
289 288 285 284 283 286 295 299 303 307 308 307 305 298 291 299 300 300 299 297 298 298 297 297 299 298 291 290 295 301 303 304 304 303 303 303 303 303 303 303 303 303 305 306 306 307 307 308 310 311 311 311 310 309 309 309 309 309 308 308 308 308 308 308 308 308 308 307 306 305 304 303 304 304 305 306 306 306 305 304 303 302 302 301 300 300 300
288 287 286 284 287 287 296 302 304 305 307 307 304 287 288 298 301 300 299 297 297 297 298 298 299 297 290 290 295 301 302 303 304 303 302 301 301 301 302 303 304 304 304 304 304 305 306 307 310 310 310 310 310 308 308 309 308 307 308 308 308 308 308 308 308 308 307 305 304 303 302 302 302 302 303 303 303 304 304 303 302 302 301 300 299 299 300
289 287 287 288 290 296 302 302 304 304 306 303 290 286 293 300 301 301 300 298 298 298 298 299 293 296 299 297 300 302 302 301 301 302 302 301 301 301 302 302 302 303 303 303 302 303 305 306 307 308 309 309 308 308 308 307 307 307 308 308 307 306 305 305 305 305 305 305 304 303 303 303 303 302 302 301 301 301 301 302 302 301 300 299 298 298 299
288 289 287 288 290 296 301 303 304 307 300 289 289 298 304 302 301 302 300 298 299 299 299 297 297 297 299 300 301 301 301 300 301 301 300 300 301 302 303 303 303 303 303 303 303 303 304 305 305 306 307 306 307 307 307 306 308 309 309 308 307 305 304 303 303 303 303 304 304 303 303 303 303 303 303 303 302 301 301 301 300 300 299 299 298 298 298
290 290 287 286 282 292 303 303 302 304 293 293 302 303 304 304 301 300 300 299 300 299 295 297 298 298 298 299 300 300 300 300 299 299 299 299 299 300 301 302 302 303 302 301 302 302 303 303 304 304 305 304 304 305 305 306 308 308 308 307 305 305 304 304 304 304 304 304 303 302 302 302 301 301 301 302 302 302 301 300 300 300 299 299 299 298 299
286 286 286 285 292 298 303 302 294 301 303 305 305 303 300 302 301 300 300 300 298 298 297 297 297 298 298 298 299 299 299 299 299 299 299 299 300 300 301 302 302 303 302 303 302 302 302 302 303 303 303 301 302 302 302 304 305 306 305 305 304 303 303 302 303 303 303 304 304 303 302 301 300 300 300 300 300 301 301 300 299 299 298 299 299 298 297
290 288 290 296 301 302 304 305 304 305 306 306 304 303 302 300 300 301 299 298 298 298 298 298 298 297 298 298 299 297 297 298 298 298 299 299 300 300 301 302 303 303 302 302 302 302 302 302 303 302 302 301 301 300 302 303 302 302 302 302 302 301 301 301 301 300 301 301 302 303 302 300 298 297 298 298 297 299 300 299 299 299 298 297 297 298 298
296 298 298 300 300 302 302 305 306 304 304 305 305 303 300 301 301 301 298 298 298 298 299 298 298 298 298 298 298 298 298 298 298 299 299 300 300 301 301 302 302 303 303 303 302 301 302 303 303 304 303 303 301 301 302 302 302 302 302 301 301 300 300 300 299 298 298 298 299 300 302 300 298 297 296 296 296 297 297 298 298 299 299 297 296 297 298
293 286 297 297 298 301 302 303 304 305 305 304 304 302 302 300 301 300 300 299 300 299 298 297 297 297 298 297 298 298 298 297 297 298 299 300 300 301 300 302 302 302 302 301 301 301 301 302 303 303 303 303 303 303 303 303 303 302 301 301 301 301 301 300 300 300 299 298 297 298 299 299 299 298 296 296 296 295 296 296 297 297 298 297 296 296 297
292 290 295 298 300 302 303 303 302 302 303 303 304 303 303 302 301 301 300 299 298 298 297 298 297 297 298 297 296 296 296 296 297 298 298 299 301 302 303 304 304 303 302 301 301 301 301 302 302 302 302 302 302 302 302 303 303 303 302 301 300 300 300 301 300 301 300 293 296 297 298 298 298 298 297 296 295 295 295 295 295 295 296 297 296 295 295
294 296 298 298 300 300 301 303 303 303 303 302 302 302 301 301 299 298 299 299 298 298 298 298 297 296 296 297 297 297 298 297 297 297 299 299 300 301 301 302 303 302 301 301 301 301 301 302 303 303 302 302 302 303 302 302 302 302 302 301 302 302 302 301 301 301 302 301 299 298 297 297 296 295 296 297 295 294 294 294 296 297 296 297 297 296 294
289 289 292 297 291 291 297 300 302 302 302 302 300 301 300 299 298 298 298 298 299 299 299 298 297 296 295 296 296 294 295 296 297 297 297 298 298 299 302 302 302 301 302 302 301 300 301 302 302 302 302 303 304 304 303 302 302 301 301 300 300 300 300 300 300 300 300 300 301 299 297 296 295 294 289 289 292 295 294 291 289 290 291 294 296 298 296
290 296 298 301 300 299 299 300 302 302 303 302 300 299 299 299 299 299 298 297 297 297 298 298 297 296 296 296 296 295 295 295 296 297 297 297 297 298 301 301 300 300 300 300 300 300 301 302 301 301 302 302 303 303 303 304 303 302 301 300 299 299 299 299 299 300 300 300 300 300 300 297 297 295 294 293 289 288 289 289 289 289 289 289 289 289 295
300 300 301 302 300 297 299 301 302 302 303 302 301 301 301 301 300 300 299 298 297 297 298 298 298 298 297 296 296 294 294 295 295 296 297 297 298 298 299 299 299 299 299 299 299 300 301 301 301 301 301 300 301 301 302 303 303 303 302 301 300 299 299 299 299 300 300 299 300 299 299 299 299 297 295 294 293 290 288 288 289 289 289 289 289 289 289
298 303 304 303 302 301 302 302 302 303 303 302 300 300 301 301 301 301 300 299 300 299 298 297 298 299 298 297 296 295 295 295 295 295 296 297 297 298 298 299 299 299 299 300 301 301 301 301 301 301 300 300 301 300 300 301 301 301 300 300 300 301 301 300 300 299 298 299 299 299 298 298 299 299 298 297 294 292 292 289 289 289 289 289 289 289 289
302 302 303 303 302 301 302 302 301 302 302 302 301 301 301 301 300 300 300 300 299 299 298 297 297 298 298 297 296 296 296 296 296 296 296 297 298 298 299 299 300 301 300 300 301 301 301 300 301 300 300 301 302 302 302 301 300 300 300 299 299 298 300 300 299 300 300 300 299 298 298 298 298 298 298 298 297 297 294 292 292 292 290 289 288 289 289
303 303 301 299 298 299 301 299 298 301 301 302 301 300 300 300 299 300 300 300 299 299 299 298 298 298 298 297 297 297 296 296 297 297 297 297 298 299 300 301 300 300 300 300 300 299 299 300 299 299 300 301 302 302 302 302 303 302 301 300 299 294 291 295 299 299 299 299 299 299 298 298 297 297 298 297 296 295 295 295 295 295 294 295 292 291 293
301 302 301 296 295 296 298 300 301 301 301 300 300 299 300 300 299 298 298 298 298 299 299 299 298 298 296 296 296 296 296 296 296 297 298 298 299 300 301 301 301 300 299 299 300 300 300 300 300 300 300 301 302 301 301 301 301 301 302 302 301 300 300 299 299 299 299 299 299 298 298 298 299 297 296 297 296 296 295 296 295 294 294 297 296 292 291
299 300 301 300 300 300 301 301 300 299 299 300 300 299 299 298 297 297 297 297 297 297 297 298 298 297 296 296 296 296 296 297 296 297 298 299 300 300 300 300 299 299 299 299 300 300 300 300 299 299 299 301 300 300 299 299 299 299 299 299 299 299 300 299 299 299 299 299 299 299 294 295 296 297 297 297 296 296 295 295 295 295 294 294 295 297 295
299 299 299 299 300 300 299 297 297 297 298 298 298 298 298 297 296 296 297 297 297 296 297 297 296 296 297 296 296 297 297 296 297 298 298 299 299 300 300 300 300 300 300 299 299 299 299 299 299 298 299 301 301 301 300 299 298 298 299 299 298 297 297 300 300 300 299 298 298 294 296 296 297 297 296 296 296 295 294 295 294 293 294 293 292 292 292
298 298 298 298 298 298 297 297 297 297 297 298 298 297 297 297 296 296 296 296 297 296 297 297 297 297 297 297 298 299 299 298 298 298 299 299 300 300 300 300 298 296 297 298 299 299 299 298 299 299 301 302 302 302 302 301 299 298 298 298 298 292 289 290 293 299 298 297 296 297 297 297 296 296 293 295 295 294 295 294 294 294 293 294 293 292 293
297 297 297 296 296 296 296 296 296 296 296 297 296 295 296 296 295 295 295 295 296 297 297 297 296 296 297 299 299 299 298 298 298 298 299 299 299 300 300 300 299 296 299 299 299 299 299 299 299 300 301 301 301 301 302 300 299 299 298 295 298 298 295 289 296 296 296 296 297 296 294 296 296 296 296 294 294 296 296 293 293 292 293 294 293 293 294
295 294 294 294 294 294 294 295 294 294 295 295 295 297 297 297 297 296 296 297 296 297 297 296 297 298 300 299 298 298 298 297 298 298 298 298 299 300 300 300 300 299 299 300 300 300 300 299 299 301 301 301 302 302 303 303 302 300 299 298 298 298 294 294 294 297 296 296 296 296 297 296 296 296 298 296 295 293 294 294 291 292 293 294 294 295 295
295 295 295 296 295 294 293 293 295 295 295 296 297 297 297 297 297 296 297 297 296 296 296 297 297 299 299 298 298 297 297 297 295 296 297 298 299 299 300 300 300 300 300 300 300 300 301 300 301 302 302 302 302 302 302 302 302 300 301 300 299 298 298 298 300 298 296 295 296 297 297 296 296 295 295 294 295 295 293 292 291 292 291 294 295 294 293
299 298 298 298 298 298 297 296 295 295 295 294 295 296 296 297 297 296 297 297 296 296 296 297 296 297 297 297 297 297 294 292 292 297 298 297 296 293 299 300 299 299 299 299 300 300 301 301 301 301 301 301 302 302 303 302 301 300 302 300 298 298 298 297 298 297 296 296 296 297 296 298 297 293 296 296 295 295 294 292 292 292 292 292 294 296 295
298 297 297 297 297 297 296 296 296 296 295 295 296 296 294 295 295 295 294 296 296 296 296 296 295 295 294 292 289 288 288 288 289 290 290 291 292 296 298 298 298 298 298 298 300 301 301 301 289 287 304 302 301 302 303 300 302 302 301 300 298 297 297 297 297 297 297 297 296 296 300 294 297 295 294 299 296 297 295 295 293 293 294 294 295 295 296
299 298 298 297 297 297 295 295 296 295 294 294 294 293 293 294 294 296 297 297 296 295 296 295 294 291 287 287 287 288 288 290 291 291 292 292 294 297 298 298 298 298 298 296 299 302 300 300 293 289 298 299 299 301 303 288 299 298 299 301 300 299 298 298 300 298 297 297 296 297 294 293 297 299 295 298 298 296 295 296 293 295 297 294 294 294 293
298 298 297 297 296 295 294 294 294 294 294 293 294 294 294 295 295 296 296 296 296 296 296 294 293 292 292 292 291 288 288 288 289 289 291 293 296 298 298 298 296 297 296 294 300 301 300 297 290 295 301 298 297 299 298 288 288 297 300 300 299 297 297 297 296 297 296 296 296 300 298 297 297 299 297 299 299 297 295 296 295 295 294 295 293 293 293
297 297 297 296 295 295 294 295 295 295 295 294 294 295 296 296 297 298 296 296 296 296 294 293 292 292 292 292 293 293 293 291 289 290 291 293 297 298 295 298 298 298 298 300 302 299 299 297 299 300 299 297 297 298 296 292 290 298 300 300 301 300 297 298 297 296 297 297 299 299 299 296 299 298 297 299 298 296 293 297 296 293 295 297 295 294 295
296 296 296 296 295 296 296 297 296 296 297 297 296 295 297 297 297 297 296 296 296 295 294 292 291 290 290 291 292 293 294 294 294 294 295 295 297 298 297 299 299 300 298 295 300 298 295 292 297 302 299 297 297 298 298 297 294 297 300 300 298 296 297 299 299 297 298 299 296 292 298 298 298 296 295 298 299 297 298 298 297 297 296 296 296 297 296
297 296 296 296 296 296 297 295 295 296 296 297 296 297 298 297 297 296 296 296 296 295 293 292 291 291 291 291 291 292 294 294 295 295 296 296 296 294 292 294 298 300 300 301 300 297 294 294 298 300 298 299 297 294 298 295 296 299 301 300 298 298 298 298 297 298 300 300 296 299 298 300 299 297 295 295 296 298 298 297 296 295 295 296 297 297 296
297 297 297 296 296 296 296 296 296 296 296 297 297 297 298 297 297 296 296 296 294 294 293 294 291 293 293 293 293 294 294 294 295 295 296 296 296 293 291 294 299 298 293 292 293 294 296 297 298 295 300 300 297 292 292 298 299 299 299 297 301 298 298 296 299 298 299 300 299 302 300 299 299 299 298 298 296 296 296 297 298 298 296 296 296 295 295
297 297 296 296 296 296 296 296 296 296 296 297 297 297 297 297 297 296 295 294 293 293 294 294 295 293 293 293 293 293 293 293 293 294 295 297 299 298 295 295 298 298 289 294 296 295 297 299 301 300 296 298 295 289 288 298 299 299 300 298 300 298 298 298 298 298 299 302 299 300 298 297 297 299 297 297 298 298 298 296 295 296 296 297 296 296 296
298 297 297 297 296 297 297 296 296 297 296 295 297 297 297 296 296 295 295 294 293 294 294 293 293 293 293 293 292 292 291 292 292 294 295 296 298 300 299 297 297 294 290 295 295 294 296 298 300 292 288 289 288 288 297 298 299 299 302 298 297 299 301 300 297 299 302 301 297 301 300 297 298 299 299 297 296 298 296 297 296 295 295 295 297 297 297
297 297 297 297 299 297 296 296 296 296 296 297 297 296 296 295 295 295 294 294 294 294 294 294 294 294 294 294 294 294 295 295 296 296 296 296 296 297 299 293 295 294 293 292 296 296 297 298 294 287 288 287 287 289 297 298 299 299 299 298 299 298 298 298 297 297 301 301 299 299 300 297 299 298 298 297 294 295 296 296 297 296 295 296 296 295 295
298 298 298 293 296 296 297 297 297 298 297 297 296 295 294 295 295 295 295 294 295 295 295 296 296 296 296 295 296 296 296 297 297 298 298 298 297 298 297 293 294 291 290 290 296 298 299 289 287 287 287 287 287 293 296 297 297 298 299 297 298 299 297 297 297 298 302 297 297 297 298 299 297 298 299 298 298 297 295 294 293 297 297 296 296 296 296
297 297 298 297 298 298 298 299 299 298 296 296 295 294 294 294 295 295 295 296 297 296 296 297 298 298 298 298 297 296 296 296 298 298 300 302 300 297 292 291 290 289 289 294 296 298 295 290 289 287 287 287 288 296 297 297 298 298 299 301 298 298 301 301 301 299 298 297 297 296 293 294 296 298 298 296 296 295 295 293 295 296 295 295 295 294 293
297 297 298 298 298 298 298 298 297 296 296 295 296 295 294 294 295 295 297 297 297 297 297 298 298 299 299 299 300 300 299 297 295 297 300 301 300 299 298 297 294 289 290 291 292 291 288 288 287 287 287 287 294 296 297 297 297 298 299 298 299 300 299 298 297 297 299 302 299 297 297 299 297 296 296 296 296 296 295 294 293 295 295 294 294 294 294
298 298 298 298 298 298 297 297 296 295 296 296 296 296 295 294 294 295 296 297 297 297 297 297 298 299 299 298 299 300 301 300 300 298 300 301 300 300 299 293 288 287 291 296 299 297 288 287 286 287 286 288 295 295 296 297 297 297 297 298 297 299 299 299 298 298 297 298 298 297 296 296 296 296 296 296 295 295 294 295 296 293 293 293 293 293 294
298 298 298 297 297 297 296 296 295 296 297 297 297 297 297 295 294 294 295 296 297 295 297 297 297 298 298 299 299 300 301 301 301 302 301 301 302 302 298 297 294 290 292 298 300 298 288 286 287 287 288 294 295 295 296 298 298 297 297 298 297 297 295 295 293 293 296 296 298 296 297 296 296 294 293 293 292 293 292 292 291 293 289 291 292 292 292
298 297 297 296 298 298 298 298 297 297 297 297 298 298 297 295 295 295 296 297 297 296 297 297 298 298 299 299 299 300 301 301 300 298 301 301 301 297 295 297 295 293 296 297 298 299 296 293 293 290 291 295 295 297 297 297 297 296 295 296 297 298 296 296 294 296 298 296 296 297 296 298 299 297 293 293 293 295 296 293 294 292 293 292 292 292 293
299 299 299 299 298 299 299 298 298 298 298 297 298 298 297 297 297 296 297 293 298 297 297 297 297 299 300 300 299 299 300 301 300 301 299 300 300 300 296 293 296 296 298 299 298 300 298 295 291 288 290 294 295 296 292 292 295 296 297 295 295 300 298 296 295 296 297 300 299 297 297 296 296 295 295 295 294 297 293 293 293 292 293 293 293 293 293
Wind_Speed
12 7 9 13 10 10 17 21 18 18 20 17 17 9 9 8 5 3 17 20 20 19 19 18 17 17 17 16 16 14 13 12 12 12 11 11 11 10 11 10 10 10 9 6 5 5 7 8 8 7 8 8 7 7 8 7 7 8 8 9 10 10 11 10 10 9 8 8 8 9 11 11 12 12 12 12 12 12 12 11 9 10 10 10 9 7 7
10 9 8 8 16 11 12 17 16 16 15 18 16 10 8 4 8 15 16 10 14 17 17 15 15 16 16 15 14 14 14 13 13 12 12 12 11 11 11 11 10 10 9 9 7 7 8 9 8 8 7 8 8 7 6 7 9 9 8 10 11 10 11 10 9 9 9 8 9 10 11 11 12 12 12 11 12 13 13 13 12 12 11 12 13 13 11
11 9 8 10 9 8 10 12 15 17 13 13 16 3 16 17 13 18 20 19 12 6 12 15 14 13 14 15 15 15 14 14 13 12 12 12 12 11 11 11 11 10 10 9 9 9 8 8 8 8 8 7 6 8 8 8 8 7 10 10 11 10 10 9 10 10 9 10 10 11 11 11 11 12 12 11 11 12 11 12 13 12 11 12 12 12 12
5 5 10 7 7 7 8 13 11 10 12 3 9 5 7 16 14 18 20 15 10 5 10 11 13 15 16 17 16 14 13 13 13 12 12 12 11 11 11 11 11 10 10 9 9 9 7 7 9 9 7 7 8 9 9 9 8 12 11 11 11 11 10 9 10 11 10 11 11 11 11 12 12 11 11 11 12 11 11 12 12 12 13 12 11 11 11
3 5 5 7 3 7 3 4 10 6 16 13 9 11 12 18 20 15 9 8 12 16 14 14 13 16 16 16 15 15 15 14 13 13 12 12 11 11 11 11 11 10 9 8 7 7 8 7 8 9 9 9 9 9 9 5 10 12 13 12 11 11 11 11 11 11 11 11 11 11 12 12 11 11 11 12 12 12 12 10 11 13 13 13 11 12 12
2 7 8 3 3 9 5 4 12 5 10 14 15 9 7 7 7 9 11 13 14 14 13 15 12 13 13 13 12 12 12 11 11 12 13 12 11 11 10 10 10 10 8 6 7 5 6 8 9 7 7 9 9 7 6 9 12 12 12 12 11 11 11 12 12 12 12 12 12 12 12 11 11 11 11 12 12 11 11 11 12 12 12 13 13 13 11
2 5 8 4 6 3 4 5 11 2 12 17 18 13 12 14 17 24 22 18 15 12 12 14 13 11 11 12 15 12 10 10 11 12 13 12 11 11 11 10 10 9 8 7 6 6 9 7 4 6 8 9 8 7 8 11 11 13 12 11 11 11 12 12 12 12 12 11 11 12 12 11 11 11 11 11 12 11 10 10 11 11 11 12 12 12 11
3 2 2 5 1 3 2 3 13 3 11 12 19 14 13 12 11 18 23 20 15 13 13 13 12 12 11 11 9 8 8 9 10 11 10 10 10 11 10 9 8 8 8 7 7 6 6 5 7 8 8 7 7 8 11 10 12 12 12 11 11 11 12 11 12 12 12 11 11 12 12 11 11 11 11 11 11 9 9 9 9 9 9 10 12 13 11
3 2 2 1 3 2 4 7 5 3 4 6 7 8 6 7 10 15 20 15 13 14 15 14 13 13 13 12 8 7 9 10 10 9 9 10 11 10 9 8 8 7 7 8 7 7 6 6 7 8 7 7 6 10 11 11 12 12 12 12 12 11 12 12 12 12 12 13 12 12 12 12 12 12 11 10 10 8 9 9 9 10 10 10 10 11 13
0 4 3 0 2 5 3 4 5 4 2 9 8 11 6 7 10 13 18 18 17 16 16 15 15 13 14 9 5 5 10 11 12 10 9 10 9 9 9 8 8 8 8 8 7 7 8 8 9 8 8 7 10 11 11 11 11 12 12 12 11 12 12 12 12 12 12 12 12 12 12 12 12 11 9 8 9 8 9 10 11 10 9 9 11 12 14
2 3 3 3 3 0 2 4 7 4 4 7 7 5 5 9 12 12 16 19 18 18 17 16 13 10 9 8 8 6 9 11 12 12 11 10 9 9 9 8 9 9 8 8 8 9 9 9 8 8 9 9 10 11 10 11 11 12 12 11 11 11 11 12 12 11 11 11 12 12 12 12 11 12 10 9 7 8 8 9 9 9 9 10 10 11 12
1 2 3 2 0 1 2 2 5 4 8 2 2 4 5 12 14 15 16 18 19 17 18 15 11 8 10 13 12 9 10 11 11 10 11 11 10 10 9 9 9 9 8 8 9 8 8 8 7 8 7 7 10 11 11 10 12 12 11 11 11 11 11 11 10 10 9 10 10 11 11 11 11 10 9 9 10 9 9 9 9 9 9 10 11 11 11
9 8 1 2 2 1 2 4 4 5 2 4 3 4 5 14 15 15 15 17 16 16 14 9 3 3 7 12 15 14 13 12 11 11 11 11 11 10 9 9 8 8 8 8 9 9 8 8 8 8 7 6 11 10 10 10 11 11 10 10 11 11 11 11 12 12 10 10 11 11 10 9 8 9 9 9 9 9 9 8 9 9 10 10 11 11 10
5 5 6 2 2 0 6 2 4 5 2 3 3 4 10 15 16 15 15 16 14 13 8 5 8 12 16 15 14 15 13 11 11 12 12 12 10 9 9 8 9 9 9 9 9 9 9 9 9 9 8 9 10 10 10 10 10 9 9 10 9 10 10 11 11 11 10 10 9 9 9 9 9 9 8 8 7 7 6 7 8 9 8 8 9 10 10
3 2 5 4 3 1 3 5 4 1 3 2 7 12 13 13 15 16 14 14 13 10 12 12 14 17 17 14 14 14 13 10 11 11 12 11 10 9 9 9 9 9 10 10 10 10 10 10 9 9 10 11 10 9 10 10 9 9 9 8 9 9 9 9 8 9 8 9 9 9 8 9 10 10 9 9 9 8 8 7 7 7 8 7 7 7 8
1 2 2 2 3 4 1 4 2 6 7 8 11 11 13 12 12 13 10 11 12 13 15 16 16 16 17 14 12 12 11 10 10 11 11 10 10 10 9 9 9 10 10 10 10 10 10 9 9 9 9 10 9 10 10 8 8 8 8 8 8 8 8 9 9 10 10 10 8 8 10 10 10 11 10 9 9 9 8 8 8 8 8 8 8 9 9
1 2 3 2 2 6 6 7 10 10 10 11 13 12 12 14 11 12 12 14 14 14 16 18 18 17 15 16 13 13 12 11 12 11 11 10 10 10 9 8 8 9 10 11 10 11 10 10 9 10 9 10 10 10 8 8 8 9 8 8 8 8 9 8 9 10 9 10 10 9 10 11 11 11 11 10 10 9 8 8 8 8 8 8 8 8 8
11 10 7 4 5 6 8 7 9 11 12 12 13 13 12 11 12 11 12 14 15 15 15 18 14 14 16 15 14 13 12 12 12 10 11 10 10 10 9 10 10 10 11 11 11 11 11 11 9 8 9 9 9 9 8 8 9 9 8 7 8 9 9 9 10 11 11 11 11 10 10 10 10 10 10 10 9 9 9 9 8 8 8 8 8 8 8
5 4 4 6 7 7 8 10 10 10 10 10 9 10 10 11 12 14 14 14 15 15 13 14 17 14 13 15 13 12 12 11 10 9 9 8 8 8 9 8 8 9 10 11 12 11 11 9 9 9 9 9 9 8 8 8 8 8 8 8 7 6 7 8 8 8 9 8 8 9 8 8 8 9 9 8 9 10 9 9 9 8 8 9 9 8 8
3 7 8 7 6 7 9 9 9 10 11 11 10 10 11 13 14 15 16 16 16 14 14 14 16 16 13 12 12 13 12 10 10 10 9 8 7 6 4 4 6 10 10 11 11 11 10 9 9 9 10 10 10 9 9 9 8 7 7 7 7 7 7 6 5 7 7 9 9 7 8 7 7 7 8 8 7 8 8 8 8 8 7 8 8 8 7
12 12 9 8 7 9 9 10 9 9 10 12 13 14 15 16 17 17 15 13 14 15 16 17 17 17 14 12 11 11 8 8 8 6 7 9 7 4 7 6 6 10 10 10 11 11 10 9 8 8 9 9 9 9 9 9 7 7 6 7 6 7 6 5 5 5 5 7 7 7 7 8 7 6 5 5 7 6 7 6 6 7 7 6 6 7 7
8 8 11 14 10 7 8 10 12 13 14 14 16 16 17 16 16 16 16 15 14 15 15 15 15 16 14 13 13 12 10 10 10 8 9 9 8 5 6 9 10 10 9 9 10 10 9 8 8 9 8 8 8 8 8 8 7 7 7 7 7 7 6 6 6 6 5 5 7 7 7 7 7 8 12 13 9 6 4 9 12 11 8 6 5 4 5
6 12 18 9 10 13 9 11 12 13 13 15 16 16 16 15 15 16 18 18 17 16 15 13 15 15 16 16 14 13 12 12 10 9 10 10 9 8 6 10 12 9 8 9 8 9 8 7 8 9 8 9 8 9 8 7 7 7 7 6 6 6 6 5 5 6 5 5 7 5 7 7 6 7 5 7 11 12 9 7 9 10 9 12 14 12 7
15 16 12 11 13 13 13 13 13 13 13 14 15 15 14 15 16 15 16 16 17 16 16 15 14 16 16 14 14 14 13 12 11 10 9 10 10 8 7 9 9 9 9 8 9 9 8 8 9 9 9 9 9 9 9 9 9 8 8 5 5 5 5 6 6 6 6 6 6 6 6 5 6 6 5 6 5 6 7 8 8 9 9 10 10 10 11
11 11 11 13 15 15 13 13 12 13 13 13 13 15 15 15 15 15 15 15 14 16 16 16 15 14 15 15 14 14 14 13 12 12 11 10 9 8 9 11 11 10 9 8 8 9 9 9 9 9 9 9 9 9 9 9 9 9 9 9 8 6 6 6 5 7 7 6 6 6 6 6 6 6 4 4 5 4 3 3 4 6 8 7 7 6 6
14 14 15 15 15 14 11 13 13 13 14 13 13 13 14 13 15 15 15 15 14 14 16 16 16 15 14 14 13 14 14 13 13 11 11 9 9 9 10 11 11 9 10 10 9 9 9 9 9 8 9 9 8 8 9 9 9 8 8 8 9 9 7 6 7 6 6 6 6 6 6 6 6 6 6 6 6 4 5 2 2 1 1 2 3 4 5
12 13 17 16 14 12 13 13 13 13 14 14 15 15 15 14 14 14 14 14 14 15 14 14 14 14 12 13 13 13 13 12 11 11 11 11 11 10 11 12 12 11 11 10 9 8 7 8 9 9 9 9 8 8 8 8 6 7 8 8 8 9 12 8 7 6 6 6 6 6 6 6 6 6 5 6 6 6 7 3 3 4 4 3 2 7 5
10 10 10 13 14 13 12 14 14 14 15 15 16 16 16 14 14 15 15 15 14 14 13 14 14 15 14 13 13 13 10 10 10 10 9 10 9 7 7 10 12 12 11 9 9 8 8 9 9 9 9 9 9 9 9 9 8 7 7 6 6 6 6 7 7 6 5 6 5 6 6 5 5 5 5 5 6 6 5 5 5 8 7 4 1 2 5
8 7 9 12 13 13 14 14 14 15 16 16 15 14 15 16 16 15 15 15 16 15 13 14 13 13 13 13 11 11 9 10 11 11 9 10 12 12 10 11 11 10 9 8 9 9 9 9 9 9 9 9 9 9 9 9 7 7 7 7 7 6 5 6 6 5 4 4 4 5 5 5 5 5 5 5 5 5 4 5 6 8 7 7 6 3 2
10 11 12 13 14 14 16 16 15 15 16 15 15 15 15 16 16 15 15 16 15 14 14 15 14 13 12 12 11 10 12 14 12 11 10 8 10 11 11 10 10 9 9 9 9 9 9 9 9 9 8 7 9 9 10 8 8 9 8 7 6 6 7 4 4 5 5 5 4 3 5 6 5 5 5 5 5 4 3 3 4 5 6 6 6 5 7
12 13 15 14 15 14 16 16 14 15 15 15 16 16 15 14 15 15 15 14 13 14 14 13 14 14 13 11 12 12 13 11 11 11 10 11 11 10 10 10 9 8 8 8 8 8 9 9 8 7 6 6 7 8 8 7 8 8 7 6 5 7 8 10 8 6 5 5 6 6 4 4 4 3 3 4 4 4 4 4 3 3 5 4 5 5 5
15 15 16 14 14 16 15 13 14 14 14 14 15 15 15 15 15 15 14 13 14 14 14 14 14 13 11 10 11 12 11 11 11 10 10 10 10 9 9 8 8 9 10 9 7 7 6 7 9 8 7 7 6 6 6 7 6 6 5 5 4 3 3 9 1 5 5 5 4 4 4 4 3 3 3 4 4 3 3 4 4 3 4 6 5 4 3
15 15 14 14 14 15 14 13 14 14 14 13 12 12 13 12 13 12 12 13 13 12 12 11 11 10 7 11 12 12 13 11 10 10 10 10 10 9 9 8 8 9 8 7 7 7 7 8 7 5 6 7 7 6 4 4 5 5 6 6 5 5 4 4 2 4 6 5 5 4 3 4 4 2 1 2 3 4 3 2 2 3 4 4 5 3 2
12 12 13 14 13 14 15 13 11 12 11 10 12 13 14 13 12 13 14 12 13 13 13 13 9 6 10 12 12 11 11 10 8 8 9 9 9 9 8 7 8 8 8 8 8 6 6 7 6 4 6 6 6 5 5 5 3 5 4 4 3 3 2 2 1 4 5 5 4 4 2 4 4 4 5 4 3 2 3 4 4 3 3 3 4 3 2
11 13 13 13 13 14 15 16 15 13 12 13 12 11 10 10 12 14 13 11 9 8 10 9 9 9 9 7 10 8 6 6 4 6 7 8 6 5 7 8 9 8 8 8 7 6 6 6 5 5 6 5 5 5 6 6 4 4 3 5 5 4 4 3 3 3 6 4 4 3 2 1 1 2 2 3 6 6 5 5 4 4 4 4 4 2 1
13 12 12 11 11 12 12 13 13 14 14 13 13 13 11 8 8 8 4 4 10 10 10 9 8 8 9 11 8 8 8 7 7 8 8 6 3 1 6 9 9 9 8 8 7 6 7 6 6 6 4 4 3 3 4 5 6 0 3 3 4 5 3 4 6 4 3 5 5 2 1 1 2 2 3 2 3 3 4 5 5 5 2 2 2 1 1
13 13 13 14 14 14 11 8 8 8 11 11 10 10 10 11 11 8 7 9 9 11 10 9 10 10 8 8 7 7 7 6 6 6 5 4 1 1 7 7 8 8 8 7 6 5 6 5 3 3 2 4 3 3 4 7 4 5 7 2 3 1 3 2 2 3 6 3 4 1 2 5 2 1 1 2 2 2 1 1 1 1 2 0 1 0 1
13 14 15 13 12 13 12 11 11 11 12 13 13 11 11 10 9 9 10 9 9 9 10 11 10 9 9 8 7 6 6 6 7 6 5 2 2 4 7 6 5 6 4 4 4 5 6 6 3 1 2 5 3 3 4 5 4 5 5 3 3 1 3 3 4 3 4 4 2 2 0 2 1 1 2 2 1 2 0 0 1 2 3 1 1 2 1
14 13 13 14 13 12 12 12 11 9 11 12 12 12 11 11 13 13 11 11 10 11 12 11 11 10 10 10 9 8 7 8 5 5 3 1 5 5 4 6 6 5 4 6 5 6 6 6 5 4 2 6 5 4 3 2 5 4 3 2 4 1 0 3 4 3 3 4 1 1 2 4 1 2 2 1 1 0 0 0 3 4 3 1 2 3 3
13 13 14 13 13 11 8 7 9 8 9 11 11 11 9 10 10 11 11 11 11 11 11 11 11 9 10 10 10 9 9 8 7 6 5 4 4 5 6 7 7 7 8 7 6 6 7 7 5 4 5 6 5 3 4 2 3 3 5 3 3 3 2 2 0 3 3 2 5 5 1 1 1 3 0 0 0 1 2 2 2 2 2 3 3 2 3
15 15 13 12 12 11 11 12 11 10 11 11 11 10 9 9 10 10 10 10 11 11 12 11 11 10 11 11 10 10 10 9 8 8 6 5 5 5 4 4 7 7 7 5 6 7 9 6 6 3 6 5 6 5 4 4 4 5 3 2 4 4 2 2 2 2 1 1 0 0 2 0 0 2 3 3 2 2 2 2 3 4 3 3 3 3 2
14 14 15 15 13 12 12 13 12 12 12 11 10 11 11 11 11 11 11 10 10 10 11 11 11 11 11 11 11 11 10 10 10 9 9 7 6 5 4 5 7 6 8 10 11 8 5 5 5 6 3 6 6 5 3 4 3 5 3 4 1 2 2 4 2 1 0 2 1 1 0 2 1 1 2 2 3 3 3 2 1 2 3 3 3 4 4
17 16 14 15 15 15 14 13 13 12 11 11 10 10 10 11 11 11 11 11 11 11 11 11 10 10 11 11 12 11 10 10 11 10 9 8 8 6 8 7 8 9 10 8 7 6 6 6 5 1 6 8 7 9 6 4 4 6 1 3 2 1 2 1 2 1 1 0 2 2 2 3 3 1 1 1 2 2 2 3 3 3 2 3 3 3 3
13 12 11 13 14 15 13 12 13 11 11 11 11 11 11 10 10 11 11 11 11 11 11 12 12 12 11 11 11 9 9 9 9 8 7 7 8 6 10 8 8 10 11 7 6 6 6 6 3 9 12 11 10 8 4 4 5 6 0 4 5 3 1 0 4 3 0 0 0 1 1 1 1 1 1 1 1 0 2 2 3 4 4 3 2 2 2
10 12 12 12 11 12 11 10 12 11 10 10 10 11 11 11 11 10 11 11 11 11 11 11 11 11 11 10 9 9 8 8 8 8 7 5 5 4 9 11 10 9 9 7 6 6 6 6 11 14 11 11 8 5 3 4 6 4 5 3 3 2 2 1 2 2 1 1 0 1 2 2 1 2 3 2 1 1 2 1 2 2 4 3 2 3 4
13 12 12 11 11 12 11 11 11 11 12 11 11 11 11 11 11 11 11 11 11 11 11 11 11 11 11 11 9 10 10 8 9 8 7 6 6 7 9 9 8 8 11 10 6 6 4 15 16 13 13 11 9 5 3 6 4 9 1 3 2 2 2 3 4 2 1 0 0 2 2 1 3 2 2 2 2 2 2 0 1 2 2 2 3 2 0
12 12 13 13 13 13 12 12 11 12 12 11 10 10 10 11 10 10 10 10 10 11 11 10 10 10 11 10 9 8 8 8 8 8 6 2 7 11 13 13 12 13 12 7 6 3 7 11 12 14 13 12 10 4 5 5 5 5 2 2 3 3 1 2 2 2 3 4 2 2 2 4 3 2 2 3 5 4 2 1 1 1 2 0 1 2 1
13 13 12 11 11 12 11 11 11 11 11 10 10 9 10 11 11 10 10 8 8 9 10 9 8 9 9 9 7 7 7 7 5 7 5 7 9 9 7 7 9 11 12 7 5 6 13 11 12 13 13 12 7 5 5 5 5 6 4 3 3 2 2 4 5 6 2 0 1 3 3 3 3 6 7 6 4 3 3 3 2 1 1 1 2 4 4
12 12 13 12 11 12 11 10 10 10 9 10 10 10 11 11 11 11 10 9 9 9 10 9 9 9 8 8 7 7 5 7 5 4 5 6 10 10 11 10 14 14 11 6 7 6 11 10 10 11 13 10 6 6 6 5 5 5 6 6 4 2 1 2 4 4 3 2 3 3 3 4 5 5 4 2 1 1 2 2 1 1 1 2 0 1 2
12 10 10 10 10 11 10 9 9 9 9 10 10 9 10 11 10 10 9 9 8 8 8 9 8 8 7 7 7 7 9 6 6 6 7 5 6 6 10 10 10 13 12 7 8 7 11 15 12 11 10 7 6 6 5 5 4 5 5 6 6 6 3 2 3 4 3 2 2 2 2 2 3 5 6 5 4 4 3 3 3 4 6 3 3 3 4
10 10 10 10 10 11 14 10 9 9 9 9 9 9 9 10 9 9 9 9 9 8 8 8 8 8 8 8 8 7 5 7 7 6 3 7 6 7 11 8 9 8 8 6 5 4 6 6 6 8 8 7 7 6 5 5 5 6 6 6 4 3 1 3 4 5 4 4 4 3 1 0 2 3 3 4 4 3 2 2 2 2 4 4 4 3 3
10 9 8 9 10 6 9 11 10 8 9 10 9 10 9 9 8 9 9 8 8 9 8 8 9 8 8 8 8 7 7 7 5 2 3 4 5 10 11 14 9 8 8 5 6 4 7 8 10 11 11 9 8 7 7 7 6 5 6 4 3 2 1 1 2 3 4 2 2 3 2 3 3 3 3 3 3 2 1 1 1 1 1 1 1 2 3
Wind_Direction
246 256 273 268 287 273 213 219 219 209 204 214 235 238 235 208 227 189 146 147 147 164 163 156 145 141 137 135 132 128 125 127 132 136 135 129 121 117 111 112 110 105 99 94 85 92 96 88 76 66 68 67 62 58 53 47 47 40 31 31 33 32 29 23 22 21 21 15 18 19 19 20 20 19 18 15 12 11 12 12 16 16 20 21 15 34 42
252 244 252 268 252 261 293 215 220 234 221 208 223 228 230 195 117 120 143 127 137 150 143 142 135 132 127 127 126 127 131 135 142 136 132 128 123 117 115 110 104 101 106 105 105 95 80 74 72 75 68 64 59 53 57 55 54 44 36 37 36 30 31 29 24 25 22 20 23 22 23 24 25 24 22 20 20 19 15 16 18 18 23 32 33 29 33
222 235 253 273 282 281 311 284 219 227 238 229 215 153 78 91 101 103 102 97 84 17 99 109 122 126 126 126 133 136 139 142 139 135 131 125 121 119 120 114 108 109 108 106 102 93 86 87 85 71 63 57 61 54 42 49 55 54 49 47 39 26 30 30 29 29 30 29 28 30 28 28 29 27 25 23 22 21 20 21 20 21 23 34 40 34 26
214 219 241 248 257 293 309 317 264 243 237 207 32 90 133 119 120 112 106 108 113 111 102 113 125 131 134 137 139 141 142 139 136 134 129 124 123 124 121 118 115 109 98 98 89 77 76 82 75 72 63 56 50 51 40 32 42 57 54 48 38 29 28 28 31 32 30 28 31 33 33 32 32 32 29 27 24 23 22 25 25 27 27 26 33 33 27
197 219 194 232 76 14 308 40 339 17 87 107 93 77 111 125 127 122 133 144 145 145 139 129 136 139 140 138 141 142 140 137 137 135 128 124 128 125 123 122 120 107 94 86 92 81 77 71 70 64 67 63 55 51 48 14 54 61 54 45 38 31 27 28 33 35 32 31 32 34 34 33 33 33 32 33 30 24 24 26 30 32 29 28 26 25 30
157 89 88 83 124 221 207 54 300 341 92 100 89 62 46 69 95 108 110 112 118 128 135 134 146 142 140 138 134 136 136 136 133 129 127 126 122 121 119 120 113 102 92 77 62 80 105 75 61 66 66 65 69 64 53 53 59 61 55 48 39 34 29 31 33 35 37 34 36 37 36 34 35 33 33 35 34 31 28 29 32 30 28 29 26 24 26
120 109 104 98 210 238 44 305 291 41 91 94 88 85 67 77 92 101 105 110 122 132 137 132 125 117 116 127 131 128 126 125 124 123 127 129 126 121 120 113 106 95 89 84 69 37 51 56 66 60 56 61 60 61 59 63 58 58 55 48 43 37 35 32 34 37 38 37 37 39 38 36 37 37 35 36 37 35 31 27 29 30 26 28 26 23 15
119 168 134 183 164 39 282 34 297 92 99 91 87 66 60 75 96 116 122 130 135 136 126 119 115 111 99 81 65 83 105 110 115 120 120 123 124 120 103 98 95 92 86 81 69 51 45 58 72 69 66 53 57 62 58 58 61 57 54 50 45 40 38 33 35 37 40 40 41 40 40 39 38 38 38 37 38 35 35 34 31 33 34 34 31 28 22
191 104 117 345 344 189 138 151 257 143 160 114 115 110 66 87 108 126 125 116 114 116 121 114 111 110 98 82 58 47 91 102 103 99 98 100 96 96 97 95 91 87 83 78 72 69 55 25 60 77 68 64 58 56 58 56 56 58 56 52 46 44 44 42 37 36 41 45 43 40 38 39 38 37 35 34 38 34 37 34 32 35 35 34 31 31 30
204 145 100 145 205 205 194 189 181 27 35 76 102 103 95 98 109 123 129 123 126 125 130 126 120 113 93 89 95 93 97 104 110 104 95 102 112 112 103 97 91 87 83 76 72 73 69 52 32 49 73 74 61 62 60 57 56 55 55 54 51 47 46 45 43 39 39 41 42 40 38 38 38 37 37 38 38 34 40 38 35 31 34 35 36 34 33
112 135 149 192 201 352 2 168 158 151 89 116 108 97 131 151 131 139 135 136 140 139 137 136 142 135 121 140 140 127 110 118 125 128 129 126 116 107 101 100 96 88 81 78 77 73 72 70 61 53 48 58 74 69 64 61 62 61 59 58 56 53 51 51 51 50 45 41 43 45 42 39 36 34 29 31 43 38 41 47 45 41 36 38 38 37 32
81 99 186 176 335 56 188 187 113 86 20 354 288 186 190 165 159 150 149 145 147 144 146 150 167 161 149 156 153 138 133 138 136 128 121 115 111 107 107 103 100 100 97 89 82 79 77 76 78 73 59 53 64 72 67 66 65 62 60 60 60 58 55 52 55 54 49 47 46 45 46 44 42 40 34 31 28 34 35 38 45 44 41 41 43 40 36
167 168 90 105 117 356 119 138 150 73 25 358 194 210 131 153 154 156 151 152 153 153 155 175 118 22 107 137 142 144 141 139 134 126 118 114 114 112 108 102 98 90 84 82 84 82 81 77 71 66 65 79 81 70 71 69 68 66 64 63 60 58 55 53 50 47 44 45 44 44 44 44 46 46 43 41 39 41 41 41 45 46 45 45 44 40 35
207 191 142 123 80 2 310 340 55 72 183 200 185 75 128 136 147 149 151 151 153 155 147 98 105 109 114 131 137 139 136 131 129 125 119 112 106 102 102 105 105 99 93 87 79 77 75 76 77 75 68 60 73 76 73 70 71 77 71 64 61 62 63 61 60 54 51 47 47 48 41 39 37 40 38 40 40 42 44 44 47 50 50 49 51 48 42
92 5 124 154 146 160 323 339 211 75 268 89 112 127 118 129 135 146 146 145 146 124 108 112 115 116 123 131 137 134 128 123 118 115 114 113 115 117 118 111 110 110 105 96 91 86 79 75 75 77 77 71 66 68 69 63 62 62 67 69 64 64 60 59 61 64 62 58 55 49 45 41 40 35 31 31 29 31 36 40 41 46 47 46 49 52 53
87 159 195 102 51 99 349 286 86 55 76 120 111 113 112 116 129 139 135 121 114 119 124 125 124 126 126 127 127 121 115 112 113 116 118 118 116 109 99 94 95 98 98 94 89 84 83 80 81 80 78 81 80 78 70 67 69 70 64 58 60 67 69 62 52 46 45 48 51 57 50 42 39 36 28 25 27 25 29 30 31 36 37 37 40 43 43
342 79 98 148 57 60 45 84 101 85 78 87 95 106 118 129 126 125 128 131 126 129 131 130 131 130 133 131 131 127 127 127 123 121 120 118 116 114 115 117 114 104 100 99 93 89 86 88 87 83 79 79 78 74 74 75 71 72 69 71 64 57 60 66 68 60 50 41 36 40 55 49 41 34 30 25 26 17 20 30 35 34 35 33 35 40 43
99 76 82 102 111 95 77 71 92 92 86 93 106 112 116 126 133 134 129 131 130 132 134 130 132 131 136 131 127 130 129 121 117 118 116 113 111 112 114 111 105 105 103 99 99 97 93 89 83 78 80 81 81 80 81 79 76 71 72 75 78 76 68 59 60 68 62 53 45 38 48 58 53 44 40 34 32 24 21 24 27 30 30 36 33 31 43
140 77 111 105 105 109 99 93 94 94 97 100 107 116 118 124 133 129 130 130 131 129 127 127 128 129 133 130 124 112 106 104 107 102 91 77 77 74 88 98 107 107 104 101 97 97 96 92 92 92 90 83 78 75 72 74 75 77 77 72 67 69 79 86 86 79 77 71 61 54 50 60 63 56 46 43 41 38 36 29 27 26 24 33 34 26 30
91 138 136 127 103 95 114 117 116 111 107 106 110 115 118 120 125 129 125 128 127 131 129 132 130 128 125 117 117 117 113 118 113 98 83 74 69 116 130 120 144 117 102 98 94 92 88 85 86 85 80 79 80 81 80 75 73 71 71 75 78 76 68 63 68 88 102 97 83 65 58 53 53 60 61 49 43 34 27 31 38 33 30 29 39 33 25
108 110 116 131 117 98 102 107 105 106 105 109 113 116 120 122 120 124 128 127 129 132 131 133 131 126 125 113 106 104 94 90 99 102 97 96 95 71 153 155 126 94 102 102 99 94 89 88 89 91 97 101 100 97 88 81 75 70 64 58 63 65 68 68 62 58 82 102 100 92 77 63 54 34 21 51 64 50 20 5 13 47 45 38 42 57 40
151 165 156 150 133 133 125 117 116 110 114 118 118 123 123 124 124 125 126 124 123 125 128 131 130 125 121 120 120 121 125 132 124 129 119 101 84 83 113 105 104 108 99 94 91 88 84 85 85 81 77 72 72 80 91 104 104 99 90 75 59 51 45 51 53 50 42 58 111 115 103 100 88 66 50 46 33 51 52 13 12 31 69 59 30 43 78
164 150 155 163 118 122 112 114 116 115 124 129 128 127 128 127 126 125 126 127 128 130 131 132 133 133 136 138 139 131 127 127 127 118 107 107 103 77 94 113 108 88 86 93 103 104 104 94 88 86 84 81 76 68 64 63 78 90 90 85 82 76 60 47 44 60 54 52 39 89 129 127 104 106 104 51 44 38 32 14 12 5 51 62 50 40 36
104 141 163 137 132 131 126 120 118 124 130 129 125 123 122 124 126 128 127 131 133 133 134 133 134 134 129 126 125 123 121 122 119 110 104 111 113 122 122 114 120 119 114 108 102 101 97 95 92 88 84 79 72 68 64 62 52 47 56 69 91 89 77 68 40 51 66 51 54 46 45 74 124 142 119 103 79 42 33 25 6 9 19 61 66 66 57
117 133 123 120 121 123 120 123 124 125 127 125 123 125 126 127 126 128 129 128 131 133 133 133 135 134 131 129 129 128 126 124 125 125 128 129 145 156 142 139 142 136 123 108 98 91 88 89 89 85 84 79 81 82 80 74 69 64 58 45 34 37 72 71 72 60 54 59 57 48 46 45 42 42 72 116 131 117 67 63 29 3 12 43 65 63 71
88 99 109 117 122 121 121 124 128 130 126 123 118 119 120 120 124 128 127 127 127 129 130 134 135 135 132 132 129 127 126 126 128 133 136 144 144 149 151 144 135 122 110 104 102 102 97 93 88 87 85 85 85 87 89 91 89 86 78 66 51 36 32 58 56 49 51 51 52 52 55 51 37 46 54 45 36 107 152 102 76 78 222 31 48 43 37
101 110 120 120 121 126 139 136 130 127 121 118 121 121 120 121 120 120 122 122 125 128 131 131 130 132 131 126 125 124 124 130 137 136 138 145 151 155 167 157 116 110 113 106 99 99 105 102 97 92 90 89 85 79 74 76 88 107 112 98 85 60 47 47 56 54 50 45 45 54 52 44 47 42 42 56 56 29 23 60 122 120 103 69 5 353 14
111 125 133 134 138 137 128 124 118 118 124 125 126 128 127 127 124 125 125 126 128 128 128 132 136 137 129 131 133 134 143 150 135 137 144 146 133 128 97 96 109 102 104 117 118 111 99 97 93 89 82 76 72 69 66 58 47 45 60 79 88 102 99 81 75 65 56 51 53 52 39 44 58 47 33 44 55 44 39 28 51 60 50 58 119 11 20
120 116 112 122 127 130 130 127 127 127 129 130 131 131 133 131 130 131 131 131 131 131 132 134 132 133 138 146 150 149 162 136 126 133 147 154 143 123 121 108 110 126 135 124 117 110 105 99 97 92 89 86 84 81 79 75 64 57 51 52 46 37 67 75 64 75 73 74 72 72 62 49 42 48 46 42 43 56 46 29 47 75 66 41 28 20 233
105 103 114 123 128 131 131 130 131 131 131 134 136 136 134 134 133 134 135 136 136 134 137 139 143 149 155 152 156 170 152 132 127 125 133 108 105 124 129 134 134 126 125 116 117 119 111 105 100 101 102 106 102 102 98 95 87 82 75 62 56 45 33 34 109 82 65 47 29 89 101 77 51 50 55 47 39 46 43 42 42 72 76 63 45 24 14
120 122 127 132 134 136 135 132 131 134 135 137 138 136 136 135 132 132 135 136 135 136 142 146 147 147 154 163 171 147 127 123 130 131 133 134 133 135 138 137 136 133 126 123 113 110 114 120 123 119 117 109 115 119 118 112 107 100 92 82 74 32 11 5 50 51 65 68 49 24 47 75 79 83 60 59 50 36 28 7 25 76 109 93 60 40 25
130 130 131 136 139 137 135 135 136 139 140 138 139 141 145 143 142 141 140 143 146 153 151 149 150 158 168 155 129 122 128 131 133 134 136 134 135 139 145 136 120 116 116 119 118 113 111 100 90 92 101 107 101 93 95 100 98 97 103 120 111 129 170 247 216 83 61 43 58 58 13 16 72 65 67 94 89 57 37 38 0 11 59 88 77 56 25
137 138 138 137 135 135 134 138 138 139 140 140 141 143 144 144 140 141 141 143 147 154 152 158 166 175 170 133 132 136 135 135 133 134 140 148 155 144 118 119 126 119 120 116 117 115 105 103 98 90 90 83 82 79 77 98 117 129 128 111 104 99 67 48 29 103 89 77 59 41 39 23 5 33 92 102 107 94 56 37 14 41 48 77 94 80 73
148 146 144 144 146 145 142 144 147 145 145 143 145 146 147 146 145 143 143 151 163 166 178 160 128 151 154 136 130 133 136 136 142 153 153 140 117 107 118 117 118 122 122 124 121 118 114 119 128 126 120 117 112 130 134 127 110 103 84 74 95 81 73 112 147 102 100 99 91 49 54 53 16 352 353 18 24 50 95 78 27 14 53 61 113 122 206
143 141 145 149 147 144 144 144 147 145 142 140 142 142 139 149 151 147 164 164 133 104 74 88 122 129 119 117 109 120 122 128 137 132 105 94 94 118 134 133 125 122 124 119 120 112 97 75 75 104 105 106 97 52 32 43 85 92 105 142 146 136 124 84 40 78 107 97 69 91 72 66 90 331 325 28 32 2 45 68 28 0 35 24 49 67 166
138 139 138 129 126 134 140 143 143 144 144 150 150 135 134 128 123 131 167 120 110 114 122 140 127 100 85 82 91 97 99 91 89 93 95 81 37 345 119 118 128 133 125 122 117 114 92 80 50 25 75 78 83 83 44 24 336 30 156 157 143 134 150 160 147 144 130 110 117 99 140 191 267 294 9 37 77 44 12 18 32 356 12 17 49 14 9
143 142 141 140 142 141 125 120 129 117 114 125 121 121 140 148 154 163 149 129 131 142 152 124 90 84 91 95 100 101 104 112 107 102 99 91 10 131 129 146 142 133 130 130 133 127 123 88 45 357 107 119 87 116 71 42 358 351 326 354 31 69 111 91 24 46 69 70 78 118 160 176 190 328 40 40 54 70 43 62 78 262 264 200 218 206 239
137 138 138 133 130 124 124 131 136 137 140 142 145 152 154 152 163 158 141 142 145 131 107 103 107 109 113 109 93 90 97 102 109 109 105 118 222 181 153 152 137 137 146 125 141 128 126 141 156 233 209 109 118 106 68 34 352 321 279 139 135 73 324 138 148 114 145 113 76 334 226 85 29 320 44 35 19 85 319 75 287 275 275 222 210 204 208
135 132 134 137 139 142 140 141 140 148 152 151 157 164 164 166 173 153 146 150 135 112 115 118 123 126 124 123 124 118 119 123 127 129 132 206 244 172 148 150 169 160 119 138 149 121 133 164 183 230 126 104 114 124 103 248 281 314 336 73 332 13 73 62 21 64 122 113 89 38 338 62 5 298 133 255 284 177 203 189 242 263 280 303 25 41 51
135 137 140 143 141 142 148 152 148 157 164 163 154 151 158 162 150 140 149 144 129 125 129 135 140 138 139 136 139 141 141 144 148 150 181 210 214 157 136 101 94 113 131 152 136 134 161 186 202 225 135 130 127 138 184 221 308 289 274 167 180 159 287 333 165 99 25 77 147 200 164 49 325 294 61 267 2 339 31 355 316 315 339 7 20 30 58
142 142 146 143 145 157 168 156 164 167 149 145 153 151 158 159 142 143 139 134 133 140 144 148 145 145 146 147 145 143 149 152 164 177 189 201 194 182 152 143 137 135 162 169 141 147 163 185 220 216 137 144 132 157 182 215 231 249 257 47 359 36 53 66 319 58 124 144 159 332 99 321 247 304 27 355 356 13 24 12 358 332 356 10 11 4 39
153 154 150 152 152 146 150 152 160 156 160 158 150 152 161 156 152 144 143 140 142 149 152 151 147 148 148 147 143 143 150 161 172 186 199 200 201 173 143 140 149 127 102 107 129 142 166 195 226 265 193 132 119 155 217 231 237 265 192 141 96 286 185 157 246 111 293 327 48 26 148 176 126 43 12 352 348 358 350 349 352 348 338 347 8 21 6
161 163 158 155 151 157 164 162 157 158 150 142 156 158 148 144 140 140 146 148 152 156 154 144 139 135 142 143 146 152 157 166 178 188 201 223 228 191 150 150 140 143 143 144 149 153 174 203 202 157 99 123 145 189 206 253 256 277 161 110 101 135 278 323 40 311 256 310 30 347 339 25 19 21 1 1 337 326 333 355 340 349 359 8 3 3 21
144 139 157 151 155 162 160 154 143 151 144 152 154 145 141 139 142 146 147 150 155 153 145 146 149 149 146 149 154 157 162 172 178 187 198 210 231 191 139 145 143 149 162 168 169 174 176 199 164 114 110 120 145 172 197 243 260 256 187 121 173 226 338 159 188 214 103 344 5 331 339 1 287 283 277 256 245 354 27 12 343 359 349 336 325 11 354
177 163 162 169 157 124 139 147 155 158 149 156 145 145 142 144 148 150 151 155 153 145 145 152 154 154 153 158 162 165 167 175 182 184 198 190 167 143 123 115 133 146 175 191 207 189 188 164 137 130 135 142 155 171 237 252 275 262 156 200 142 187 206 247 2 332 293 302 239 283 287 256 268 17 339 336 35 76 41 29 0 347 297 301 26 15 12
164 158 147 144 158 161 164 160 162 153 153 155 150 143 147 149 152 153 156 155 151 149 157 163 163 162 161 166 172 169 175 183 194 196 212 190 186 142 136 140 147 150 180 195 230 232 168 140 143 141 144 149 154 187 230 266 280 291 257 134 254 237 218 217 205 219 208 211 214 238 256 356 40 344 315 312 341 337 301 163 214 256 294 345 21 45 296
155 161 161 175 172 156 163 159 160 152 154 159 154 151 152 151 155 156 159 158 156 156 165 173 170 167 166 175 177 174 177 190 196 202 214 136 125 135 147 146 151 159 169 184 232 202 137 147 144 150 150 158 162 191 208 242 248 268 265 212 227 224 269 305 277 249 200 206 187 184 187 208 211 218 210 224 228 214 199 191 231 244 270 257 233 226 244
164 168 166 174 161 151 160 164 162 157 164 165 158 155 151 154 158 162 159 166 161 164 169 174 168 172 165 184 191 191 178 191 200 191 177 134 119 117 127 138 150 165 176 188 142 106 147 158 157 158 161 161 174 199 213 229 244 261 263 229 224 240 229 222 219 221 226 193 194 240 231 214 197 190 197 216 224 206 202 195 204 190 261 295 19 33 14
171 173 159 166 170 160 157 157 162 166 169 163 160 156 156 158 163 164 168 169 171 171 174 178 176 176 180 181 199 233 198 168 216 181 186 151 143 153 149 155 160 167 172 191 179 164 165 174 176 172 165 165 183 195 217 230 241 256 275 287 286 248 230 13 23 36 43 17 348 355 348 341 330 327 336 340 355 50 72 42 4 6 34 72 83 226 235
161 168 172 167 172 163 155 162 170 174 171 163 167 159 159 163 167 166 174 171 178 179 182 174 183 177 186 180 203 213 239 188 193 200 187 186 196 178 147 149 156 170 177 188 192 171 170 176 180 178 170 182 191 202 222 231 242 240 250 243 234 245 230 169 95 60 1 344 327 289 251 240 254 257 255 256 236 215 212 200 208 176 158 189 216 224 228
169 174 164 168 205 163 149 168 174 176 168 169 168 158 165 173 174 164 175 178 179 186 195 179 183 181 185 184 190 210 224 240 222 128 141 168 223 131 148 147 151 163 197 198 210 197 151 165 166 174 189 196 196 211 220 232 236 246 250 266 272 288 216 158 220 238 230 226 243 241 226 338 336 315 308 317 321 318 289 249 214 201 193 208 210 218 220
169 175 173 182 207 190 144 158 174 183 168 171 172 161 173 182 176 172 180 186 185 185 195 179 184 185 191 189 189 195 202 212 258 178 231 240 171 140 148 142 160 169 191 202 220 207 169 178 173 184 190 194 203 200 207 218 242 257 270 287 311 327 351 350 306 285 279 297 294 283 260 238 241 250 245 250 250 248 251 285 300 298 298 274 241 229 230